GW6834 Weather Reports


time (UTC)temp
F
wind
direction
speed
knots
gust
knots
rain 1hr
in
rain 24hr
in
rain mn
in
humidity
%
barometer
mb
20260506073026 65 326 2.6 7.0 5.50 0.00 0.00 65 43.6
20260506072635 65 330 2.6 6.1 5.50 0.00 0.00 65 43.4
20260506072127 65 321 3.5 6.1 5.50 0.00 0.00 65 43.2
20260506071607 65 330 3.5 7.0 5.50 0.00 0.00 65 43.3
20260506071256 65 320 2.6 6.1 5.51 0.00 0.00 65 43.6
20260506070727 65 316 3.5 6.1 5.51 0.00 0.00 65 43.3
20260506062041 66 298 6.1 9.6 5.52 0.00 0.00 66 42.4
20260506061524 66 306 3.5 8.7 5.52 0.00 0.00 66 42.6
20260506061044 66 309 4.3 7.8 5.52 0.00 0.00 66 42.6
20260506060550 66 306 4.3 7.8 5.52 0.00 0.00 66 41.8
20260506051042 68 327 4.3 8.7 5.54 0.00 0.00 68 39.6
20260506050524 68 336 3.5 7.0 5.54 0.00 0.00 68 39.4
20260506045121 68 339 3.5 8.7 5.54 0.00 0.00 68 38.9
20260506044522 69 337 4.3 11.3 5.54 0.00 0.00 69 38.6
20260506044047 69 342 5.2 12.2 5.54 0.00 0.00 69 38.6
20260506043545 69 340 4.3 9.6 5.55 0.00 0.00 69 38.6
20260506043031 69 337 5.2 12.2 5.55 0.00 0.00 69 38.6
20260506042642 69 335 5.2 11.3 5.55 0.00 0.00 69 38.5
20260506042133 69 340 4.3 9.6 5.55 0.00 0.00 69 38.2
20260506041539 69 349 6.1 13.0 5.55 0.00 0.00 69 38.0
20260506041108 69 344 6.1 15.6 5.55 0.00 0.00 69 37.8
20260506040544 70 354 7.0 13.9 5.55 0.00 0.00 70 37.6
20260506040044 70 353 5.2 11.3 5.56 0.00 0.00 70 37.4
20260506035558 70 353 8.7 17.4 5.56 0.00 0.00 70 37.1
20260506035103 70 358 7.0 16.5 5.56 0.00 0.00 70 37.0
20260506034525 70 357 7.0 13.9 5.56 0.00 0.00 70 36.8
20260506034024 70 356 7.8 15.6 5.56 0.00 0.00 70 36.4
20260506033522 71 356 7.8 16.5 5.56 0.00 0.00 71 36.2
20260506033022 71 359 7.0 13.9 5.67 0.00 0.00 71 36.1
20260506032628 71 359 7.0 17.4 6.04 0.00 0.00 71 36.0
20260506032144 71 356 6.1 14.8 6.72 0.00 0.00 71 35.6
20260506031523 71 353 7.8 16.5 7.70 0.00 0.00 71 35.3
20260506031105 71 352 6.1 13.9 9.81 0.00 0.00 71 35.1
20260506030528 72 356 7.0 16.5 1.39 0.00 0.00 72 34.8
20260506030021 72 357 7.0 14.8 1.95 0.00 0.00 72 34.5
20260506025600 72 349 7.0 14.8 2.65 0.00 0.00 72 34.1
20260506025052 72 354 6.1 12.2 3.50 0.00 0.00 72 33.8
20260506024606 73 350 6.1 16.5 4.51 0.00 0.00 73 33.5
20260506024024 73 354 7.8 15.6 5.68 0.00 0.00 73 32.9
20260506023526 73 351 7.8 17.4 7.02 0.00 0.00 73 32.2
20260506023056 74 347 8.7 17.4 8.52 0.00 0.00 74 31.6
20260506022658 74 346 7.8 16.5 1.01 0.00 0.00 74 31.0
20260506022152 74 348 5.2 13.0 1.19 0.00 0.00 74 30.4
20260506021523 75 350 7.8 17.4 1.38 0.00 0.00 75 29.6
20260506021105 75 344 4.3 10.4 1.59 0.00 0.00 75 29.3
20260506020545 75 347 6.1 13.9 1.79 0.00 0.00 75 28.6
20260506020024 76 349 7.0 16.5 1.99 0.00 0.00 76 28.1
20260506015613 76 345 6.1 13.0 2.21 0.00 0.00 76 27.6
20260506015116 76 342 5.2 15.6 2.42 0.00 0.00 76 27.0
20260506014524 77 356 7.0 13.9 2.64 0.00 0.00 77 26.4
20260506014024 77 353 5.2 13.9 2.86 0.00 0.00 77 26.2
20260506013524 77 354 7.8 18.2 3.09 0.00 0.00 77 25.9
20260506013023 77 1 8.7 16.5 3.32 0.00 0.00 77 25.7
20260506012634 77 352 7.0 16.5 3.54 0.00 0.00 77 25.4
20260506012130 78 350 7.0 16.5 3.78 0.00 0.00 78 24.9
20260506011546 78 352 6.1 13.9 4.01 0.00 0.00 78 24.3
20260506011104 78 360 7.0 12.2 4.24 0.00 0.00 78 23.6
20260506010526 79 338 6.1 13.0 4.47 0.00 0.00 79 23.5
20260506010044 79 328 7.0 13.0 4.71 0.00 0.00 79 23.2
20260506005551 79 316 6.1 9.6 4.94 0.00 0.00 79 23.6
20260506005051 79 320 7.0 13.0 5.17 0.00 0.00 79 23.6
20260506004525 79 324 4.3 8.7 5.40 0.00 0.00 79 23.4
20260506004023 79 307 3.5 5.2 5.63 0.00 0.00 79 23.5
20260506003524 79 269 1.7 6.1 5.86 0.00 0.00 79 23.0
20260506003025 79 315 5.2 9.6 6.08 0.00 0.00 79 23.2
20260506002629 79 310 6.1 11.3 6.31 0.00 0.00 79 23.2
20260506002124 79 307 3.5 7.0 6.53 0.00 0.00 79 23.0
20260506001544 79 334 5.2 11.3 6.75 0.00 0.00 79 23.1
20260506001042 79 319 6.1 12.2 6.96 0.00 0.00 79 23.2
20260506000533 79 324 7.0 14.8 7.18 0.00 0.00 79 23.1
20260506000046 79 332 5.2 12.2 7.40 0.00 0.00 79 22.9
20260505235641 79 300 7.0 13.9 7.60 0.00 0.00 79 23.3
20260505235152 78 325 4.3 9.6 7.81 0.00 0.00 78 23.4
20260505234524 78 298 8.7 13.9 8.02 0.00 0.00 78 23.6
20260505234048 79 300 7.8 13.9 8.22 0.00 0.00 79 23.6
20260505233530 79 312 6.1 10.4 8.43 0.00 0.00 79 23.0
20260505233027 79 335 6.1 12.2 8.63 0.00 0.00 79 23.2
20260505232634 79 311 7.8 14.8 8.83 0.00 0.00 79 23.2
20260505232125 79 286 6.1 12.2 9.02 0.00 0.00 79 23.5
20260505231524 79 320 6.1 10.4 9.20 0.00 0.00 79 22.5
20260505231044 79 311 3.5 9.6 9.38 0.00 0.00 79 22.6
20260505230524 79 298 10.4 16.5 9.55 0.00 0.00 79 23.1
20260505230028 79 317 8.7 15.6 9.72 0.00 0.00 79 22.8
20260505225647 78 338 6.1 9.6 9.89 0.00 0.00 78 22.8
20260505225118 78 288 7.8 13.9 1.00 0.00 0.00 78 23.2
20260505224523 79 315 10.4 15.6 1.02 0.00 0.00 79 23.1
20260505224023 79 302 9.6 18.2 1.03 0.00 0.00 79 23.2
20260505223523 79 310 6.1 13.9 1.05 0.00 0.00 79 23.0
20260505223044 79 287 7.8 13.9 1.06 0.00 0.00 79 23.8
20260505222645 79 294 5.2 15.6 1.07 0.00 0.00 79 23.4
20260505222123 79 322 7.8 15.6 1.08 0.00 0.00 79 22.9
20260505221523 79 312 5.2 15.6 1.10 0.00 0.00 79 23.0
20260505221043 79 334 6.1 12.2 1.11 0.00 0.00 79 23.3
20260505220527 78 319 2.6 7.0 1.13 0.00 0.00 78 23.3
20260505220027 78 235 1.7 6.1 1.12 0.00 0.00 78 23.4
20260505215615 78 266 6.1 10.4 1.12 0.00 0.00 78 24.0
20260505215127 77 322 2.6 11.3 1.13 0.00 0.00 77 23.6
20260505214523 78 293 7.8 14.8 1.14 0.00 0.00 78 24.2
20260505214025 78 304 7.0 13.9 1.15 0.00 0.00 78 24.1
20260505213530 77 245 4.3 10.4 1.17 0.00 0.00 77 24.2
20260505213101 77 298 7.0 11.3 1.18 0.00 0.00 77 24.8
20260505212652 77 312 2.6 9.6 1.19 0.00 0.00 77 25.0
20260505212153 76 256 4.3 12.2 1.17 0.00 0.00 76 25.6
20260505211524 77 298 8.7 16.5 1.19 0.00 0.00 77 25.8
20260505211106 77 293 7.8 14.8 1.20 0.00 0.00 77 25.9
20260505210524 77 306 5.2 11.3 1.21 0.00 0.00 77 25.6
20260505210045 78 359 6.1 11.3 1.24 0.00 0.00 78 25.6
20260505205623 77 328 8.7 15.6 1.26 0.00 0.00 77 26.2
20260505205101 77 316 7.8 14.8 1.26 0.00 0.00 77 26.4
20260505204545 77 282 7.8 13.9 1.26 0.00 0.00 77 26.5
20260505204045 77 298 7.8 12.2 1.27 0.00 0.00 77 26.6
20260505203524 77 312 7.8 13.9 1.24 0.00 0.00 77 27.0
20260505203039 76 29 7.8 13.0 1.17 0.00 0.00 76 27.1
20260505202651 76 10 6.1 12.2 1.10 0.00 0.00 76 27.8
20260505202146 76 295 4.3 11.3 1.05 0.00 0.00 76 27.3
20260505201547 76 294 6.1 13.0 1.04 0.00 0.00 76 27.4
20260505201049 76 290 7.8 14.8 1.04 0.00 0.00 76 27.9
20260505200545 77 314 6.1 13.9 1.04 0.00 0.00 77 27.8
20260505200056 75 334 3.5 7.8 1.04 0.00 0.00 75 28.4
20260505195740 75 240 1.7 3.5 1.04 0.00 0.00 75 30.4
20260505195147 75 306 3.5 6.1 1.04 0.00 0.00 75 31.7
20260505194523 74 284 6.1 10.4 1.04 0.00 0.00 74 32.6
20260505194024 74 350 6.1 13.9 1.03 0.00 0.00 74 34.2
20260505193545 74 119 4.3 6.1 1.04 0.00 0.00 74 33.6
20260505193023 74 158 1.7 5.2 1.05 0.00 0.00 74 33.5
20260505192622 74 183 3.5 8.7 1.08 0.00 0.00 74 33.0
20260505192119 74 192 4.3 10.4 1.13 0.00 0.00 74 32.9
20260505191523 75 174 7.0 13.9 1.12 0.00 0.00 75 32.6
20260505191045 74 204 5.2 10.4 1.10 0.00 0.00 74 33.2
20260505190545 74 179 3.5 9.6 1.07 0.00 0.00 74 33.5
20260505190024 74 306 2.6 6.1 1.02 0.00 0.00 74 33.7
20260505185606 74 212 2.6 6.1 9.64 0.00 0.00 74 34.1
20260505185126 74 193 2.6 7.0 9.00 0.00 0.00 74 34.5
20260505184545 73 174 1.7 3.5 8.55 0.00 0.00 73 35.0
20260505184022 72 195 1.7 4.3 8.24 0.00 0.00 72 35.6
20260505183526 72 226 1.7 7.0 7.98 0.00 0.00 72 35.8
20260505183025 72 239 4.3 7.0 8.37 0.00 0.00 72 36.8
20260505182654 72 239 5.2 8.7 8.60 0.00 0.00 72 36.3
20260505182113 72 327 0.9 3.5 8.42 0.00 0.00 72 35.7
20260505181524 72 252 1.7 5.2 7.91 0.00 0.00 72 36.0
20260505181105 71 276 1.7 5.2 7.51 0.00 0.00 71 36.7
20260505180549 72 248 2.6 7.0 7.07 0.00 0.00 72 37.0
20260505180048 71 188 1.7 3.5 6.92 0.00 0.00 71 37.6
20260505175621 71 135 2.6 5.2 6.85 0.00 0.00 71 37.6
20260505175150 71 147 3.5 6.1 6.86 0.00 0.00 71 37.8
20260505174525 71 72 1.7 3.5 6.63 0.00 0.00 71 37.9
20260505174025 71 184 0.9 2.6 6.29 0.00 0.00 71 37.8
20260505173546 70 231 1.7 4.3 6.28 0.00 0.00 70 37.8
20260505173045 70 276 2.6 6.1 6.08 0.00 0.00 70 38.4
20260505172634 70 279 1.7 3.5 5.78 0.00 0.00 70 38.6
20260505172128 70 329 2.6 6.1 5.80 0.00 0.00 70 38.6
20260505171522 70 3 1.7 3.5 5.83 0.00 0.00 70 38.8
20260505171052 70 13 1.7 5.2 5.83 0.00 0.00 70 38.9
20260505170704 69 320 2.6 5.2 5.90 0.00 0.00 69 39.3
20260505170120 69 273 1.7 4.3 5.98 0.00 0.00 69 39.7
20260505165640 69 256 1.7 3.5 6.07 0.00 0.00 69 39.5
20260505165128 69 290 2.6 4.3 6.19 0.00 0.00 69 39.9
20260505164524 69 256 3.5 4.3 6.33 0.00 0.00 69 39.8
20260505164023 69 159 2.6 4.3 6.50 0.00 0.00 69 40.9
20260505163547 69 130 1.7 4.3 6.21 0.00 0.00 69 41.1
20260505163031 69 234 1.7 4.3 5.90 0.00 0.00 69 41.6
20260505162701 69 272 1.7 3.5 5.57 0.00 0.00 68 41.7
20260505162252 68 312 2.6 5.2 5.23 0.00 0.00 68 42.8
20260505161524 68 250 2.6 5.2 4.91 0.00 0.00 68 43.1
20260505161047 67 274 4.3 7.0 4.59 0.00 0.00 67 44.0
20260505160650 67 265 3.5 7.0 4.43 0.00 0.00 67 44.7
20260505160125 67 276 3.5 7.0 4.22 0.00 0.00 67 45.4
20260505153232 66 279 4.3 6.1 3.62 0.00 0.00 66 47.3
20260505152853 66 290 3.5 5.2 3.65 0.00 0.00 66 47.1
20260505152443 66 303 3.5 5.2 3.71 0.00 0.00 66 46.8
20260505151525 66 310 2.6 6.1 3.77 0.00 0.00 66 46.2
20260505151049 66 317 3.5 7.0 3.80 0.00 0.00 66 46.7
20260505150659 66 340 3.5 7.8 3.76 0.00 0.00 66 47.3
20260505150118 66 318 6.1 9.6 3.72 0.00 0.00 66 48.0
20260505140615 63 298 2.6 4.3 1.24 0.00 0.00 63 52.5
20260505140110 62 305 1.7 2.6 1.06 0.00 0.00 62 53.2
20260505124526 59 259 2.6 3.5 5.52 0.00 0.00 59 56.3
20260505124025 59 285 2.6 3.5 5.44 0.00 0.00 59 56.7
20260505123549 60 300 2.6 4.3 5.44 0.00 0.00 60 55.0
20260505123123 61 305 2.6 4.3 5.44 0.00 0.00 61 53.4
20260505122704 61 303 3.5 5.2 5.44 0.00 0.00 61 52.8
20260505122204 61 287 3.5 5.2 5.44 0.00 0.00 61 53.5
20260505121645 61 280 4.3 7.0 5.44 0.00 0.00 61 52.6
20260505121328 62 293 5.2 7.8 5.44 0.00 0.00 62 51.9
20260505120901 61 282 5.2 7.8 5.44 0.00 0.00 61 54.1
20260505120257 60 266 5.2 7.8 5.44 0.00 0.00 60 55.5
20260505115828 60 256 5.2 7.0 5.44 0.00 0.00 60 56.2
20260505115309 60 256 5.2 7.0 5.44 0.00 0.00 60 56.7
20260505114544 60 259 4.3 6.1 5.44 0.00 0.00 60 56.2
20260505114106 60 242 5.2 7.0 5.44 0.00 0.00 60 55.9
20260505113605 59 265 3.5 7.0 5.44 0.00 0.00 59 56.7
20260505113046 60 300 2.6 4.3 5.44 0.00 0.00 60 56.4
20260505112632 60 307 2.6 4.3 5.44 0.00 0.00 60 55.8
20260505112107 60 310 1.7 4.3 5.44 0.00 0.00 60 55.9
20260505111525 60 296 3.5 5.2 5.44 0.00 0.00 60 55.5
20260505111134 60 305 4.3 6.1 5.44 0.00 0.00 60 55.4
20260505110724 60 294 5.2 7.0 5.44 0.00 0.00 60 55.2
20260505110204 60 290 4.3 7.0 5.44 0.00 0.00 60 56.4
20260505102208 60 258 4.3 5.2 5.45 0.00 0.00 60 55.6
20260505101556 60 267 3.5 5.2 5.45 0.00 0.00 60 55.8
20260505101151 60 286 2.6 4.3 5.45 0.00 0.00 60 54.9
20260505100634 60 300 1.7 3.5 5.46 0.00 0.00 60 54.3
20260505100123 61 305 2.6 4.3 5.46 0.00 0.00 61 53.9
20260505095627 61 316 3.5 4.3 5.46 0.00 0.00 61 52.7
20260505095132 62 313 3.5 7.0 5.46 0.00 0.00 62 51.9
20260505094527 62 311 3.5 6.1 5.46 0.00 0.00 62 51.8
20260505094045 62 302 3.5 5.2 5.46 0.00 0.00 62 51.4
20260505093526 62 302 4.3 7.0 5.46 0.00 0.00 62 50.7
20260505093046 62 309 4.3 8.7 5.46 0.00 0.00 62 51.5
20260505092606 62 297 3.5 7.0 5.46 0.00 0.00 62 50.5
20260505092048 62 308 3.5 6.1 5.46 0.00 0.00 62 50.7
20260505091523 62 300 2.6 5.2 5.46 0.00 0.00 62 50.6
20260505091140 62 286 3.5 6.1 5.46 0.00 0.00 62 51.1
20260505090717 61 258 4.3 6.1 5.46 0.00 0.00 61 52.2
20260505090105 62 261 3.5 6.1 5.46 0.00 0.00 62 50.6
20260505085656 62 285 4.3 6.1 5.46 0.00 0.00 62 51.0
20260505085158 62 277 3.5 5.2 5.47 0.00 0.00 62 51.5
20260505084547 61 288 1.7 3.5 5.47 0.00 0.00 61 52.1
20260505084107 62 283 1.7 2.6 5.47 0.00 0.00 62 51.2
20260505083526 62 257 2.6 4.3 5.47 0.00 0.00 62 49.9
20260505083026 62 264 3.5 5.2 5.47 0.00 0.00 62 49.7
20260505082608 63 305 3.5 4.3 5.47 0.00 0.00 63 48.0
20260505082102 63 322 3.5 4.3 5.47 0.00 0.00 63 47.4
20260505081531 64 308 3.5 5.2 5.48 0.00 0.00 64 47.2
20260505081131 64 303 2.6 4.3 5.48 0.00 0.00 64 46.4
20260505080530 64 282 3.5 6.1 5.48 0.00 0.00 64 45.9
20260505080053 64 268 3.5 6.1 5.48 0.00 0.00 64 46.4
20260505075653 64 248 4.3 7.0 5.48 0.00 0.00 64 46.2
20260505075109 64 250 4.3 6.1 5.48 0.00 0.00 64 46.1
20260505074524 63 242 4.3 6.1 5.48 0.00 0.00 63 46.7
20260505074025 63 260 2.6 4.3 5.49 0.00 0.00 63 47.2
20260505073552 64 296 1.7 3.5 5.49 0.00 0.00 64 46.2